[[{"header":{"parameterUnit":"m.s-1","parameterCategory":1,"la1":30.2991,"la2":30.254,"lo1":-89.0895,"lo2":-89.0444,"dy":0.0017,"dx":0.0017,"nx":28,"ny":28,"refTime":"2025-01-08T09:00:00:Z","depth":0,"parameterNumber":2,"parameterNumberName":"U-component_of_WINDS"},"data":[0,0,0,0,0,0,0,0,0,0,0,0,0,0,0,0,0,0,0,0,0,0,0,0,0,0,0,0,0,0,0,0,0,0,0,0,0,0,0,0,0,0,0,0,0,0,0,0,0,0,0,0,0,0,0,0,0,0,-4.6462,-4.6463,0,-4.6569,-4.657,-4.6571,-4.6478,-4.6474,-4.647,-4.6466,-4.6576,-4.6583,-4.6589,0,0,0,0,0,0,0,0,0,0,0,0,0,-4.6177,-4.6182,-4.6462,-4.6463,-4.6464,-4.6568,-4.657,-4.6571,-4.6478,-4.6474,-4.6469,-4.6465,-4.6574,-4.6582,-4.659,0,0,0,0,0,0,0,0,0,0,0,0,0,-4.6294,-4.6184,-4.6461,-4.643,-4.6429,-4.6568,-4.657,-4.6572,-4.6479,-4.6474,-4.6468,-4.6462,-4.6572,-4.6581,-4.6591,-4.6766,0,0,-4.6621,-4.6625,0,0,0,0,0,0,0,0,-4.6287,-4.6304,-4.6434,-4.6433,-4.6431,-4.6504,-4.651,-4.6637,-4.6481,-4.646,-4.6466,-4.646,-4.6557,-4.6568,-4.66,-4.6772,-4.6776,-4.6622,-4.6628,-4.6632,-4.6634,0,0,0,0,0,0,0,-4.6279,-4.6299,-4.6504,-4.6436,-4.6434,-4.6411,-4.6421,-4.6533,-4.654,-4.6461,-4.6455,-4.6469,-4.6555,-4.6591,-4.6602,-4.6778,-4.6621,-4.663,-4.6636,-4.664,-4.7097,-4.7103,0,0,0,0,0,0,-4.6274,-4.6293,-4.65,-4.6507,-4.6343,-4.6421,-4.6432,-4.6486,-4.6538,-4.654,-4.6474,-4.6464,-4.6577,-4.6591,-4.6606,-4.6813,-4.6632,-4.6641,-4.6646,-4.709,-4.7098,-4.7105,0,0,0,0,0,0,-4.6268,-4.6294,-4.6496,-4.6398,-4.6422,-4.6432,-4.6493,-4.6492,-4.6527,-4.6547,-4.6548,-4.6509,-4.6573,-4.6592,-4.6727,-4.6816,-4.6645,-4.6654,-4.7083,-4.7093,-4.7101,-4.723,0,0,0,0,0,0,-4.6261,-4.6292,-4.6359,-4.6401,-4.6428,-4.6616,-4.6499,-4.6498,-4.6544,-4.6533,-4.6581,-4.6583,-4.657,-4.6713,-4.6736,-4.6826,-4.6662,-4.7075,-4.7087,-4.7098,-4.7218,-4.7243,-4.7264,0,0,0,0,0,-4.6251,-4.6392,-4.6363,-4.6389,-4.6512,-4.6621,-4.6637,-4.6619,-4.6552,-4.6619,-4.6632,-4.6582,-4.6802,-4.6727,-4.6753,-4.6847,-4.7069,-4.7084,-4.7098,-4.7208,-4.7238,-4.7264,0,0,0,0,0,0,-4.6361,-4.6397,-4.6365,-4.6524,-4.657,-4.6605,-4.6689,-4.6652,-4.6718,-4.6705,-4.668,-4.6691,-4.6833,-4.6854,-4.6769,-4.7019,-4.6925,-4.6945,-4.7,-4.7029,-4.7052,-4.7043,-4.667,0,0,0,0,0,-4.6404,-4.649,-4.6516,-4.6654,-4.6678,-4.668,-4.6727,-4.6709,-4.6756,-4.6775,-4.6798,-4.6846,-4.6925,-4.6978,-4.7053,-4.7221,-4.7229,-4.7298,-4.7321,-4.734,-4.7357,-4.7446,-4.7476,-4.7151,-4.7151,-4.7151,0,0,-4.6493,-4.6523,-4.6579,-4.6677,-4.671,-4.6799,-4.6697,-4.6796,-4.6862,-4.679,-4.6918,-4.6937,-4.6988,-4.714,-4.7208,-4.7161,-4.7449,-4.7358,-4.7373,-4.738,-4.7464,-4.7494,-4.7522,-4.7161,-4.7159,-4.7157,0,0,-4.6701,-4.6733,-4.685,-4.6886,-4.6938,-4.6938,-4.6966,-4.7007,-4.7016,-4.7144,-4.7092,-4.717,-4.7308,-4.7346,-4.7384,-4.7605,-4.7561,-4.763,-4.775,-4.7837,-4.7863,-4.7885,-4.7963,-4.7991,-4.7648,-4.7648,-4.7648,0,-4.6805,-4.6937,-4.6915,-4.7017,-4.7061,-4.7,-4.7118,-4.7154,-4.7228,-4.7259,-4.7206,-4.7378,-4.7408,-4.7567,-4.7621,-4.7654,-4.7684,-4.7624,-4.7861,-4.7883,-4.7904,-4.7977,-4.8007,-4.7656,-4.7655,-4.7654,-4.7653,0,-4.7062,-4.7155,-4.7243,-4.7315,-4.7369,-4.7479,-4.7472,-4.753,-4.7507,-4.7512,-4.7643,-4.7677,-4.7757,-4.7794,-4.7773,-4.795,-4.7919,-4.7864,-4.7769,-4.7943,-4.8012,-4.804,-4.7667,-4.7664,-4.7662,-4.766,0,0,-4.7343,-4.74,-4.7433,-4.7464,-4.7517,-4.7587,-4.7694,-4.7771,-4.782,-4.7873,-4.7961,-4.8079,-4.8028,-4.8071,-4.8054,-4.8131,-4.8301,-4.8066,-4.8067,-4.8107,-4.8496,-4.8536,-4.8569,-4.8273,-4.8278,-4.8283,-4.8491,0,-4.7551,-4.7735,-4.7718,-4.7893,-4.7977,-4.792,-4.8012,-4.8055,-4.8063,-4.8135,-4.8144,-4.8227,-4.8155,-4.818,-4.8253,-4.8265,-4.8379,-4.825,-4.8354,-4.8358,-4.8341,-4.8605,-4.8648,-4.8844,-4.8518,-4.8523,-4.8526,0,-4.7819,-4.788,-4.8063,-4.8101,-4.8136,-4.822,-4.8288,-4.8359,-4.8405,-4.8405,-4.8453,-4.8422,-4.8529,-4.8432,-4.8578,-4.8491,-4.8532,-4.8545,-4.8552,-4.856,-4.8452,-4.8619,-4.8906,-4.8935,-4.8568,-4.8565,-4.8562,0,-4.8002,-4.8131,-4.8257,-4.8286,-4.8334,-4.8394,-4.8417,-4.8457,-4.8504,-4.8565,-4.8595,-4.8667,-4.8707,-4.8763,-4.8753,-4.8684,-4.8901,-4.8804,-4.8904,-4.8904,-4.8951,-4.8948,-4.9247,-4.8981,-4.898,-4.898,-4.8979,0,-4.8236,-4.835,-4.834,-4.8417,-4.8543,-4.8522,-4.8647,-4.8662,-4.8699,-4.8778,-4.8733,-4.8808,-4.8791,-4.8865,-4.8858,-4.8979,-4.8998,-4.9,-4.8997,-4.9004,-4.9003,-4.9029,-4.9015,-4.8987,-4.8986,-4.8984,-4.8983,0,-4.8462,-4.846,-4.8593,-4.8628,-4.8639,-4.873,-4.8759,-4.8832,-4.8836,-4.8936,-4.8959,-4.8965,-4.9051,-4.9046,-4.9143,-4.9138,-4.9287,-4.9268,-4.9271,-4.9266,-4.9365,-4.9356,-4.9691,-4.9733,-4.9441,-4.9443,-4.9446,0,-4.8611,-4.8697,-4.874,-4.879,-4.8816,-4.8897,-4.8944,-4.8927,-4.8978,-4.9036,-4.9102,-4.9183,-4.9247,-4.9386,-4.9399,-4.9473,-4.9454,-4.9567,-4.9465,-4.9469,-4.9454,-4.9449,-4.9456,-4.9586,-4.959,-4.9592,-4.9595,0,-4.8874,-4.8868,-4.8938,-4.9008,-4.9066,-4.912,-4.917,-4.9213,-4.92,-4.926,-4.9346,-4.9396,-4.9494,-4.9575,-4.9645,-4.9668,-4.963,-4.9627,-4.9653,-4.966,-4.9658,-4.9659,-4.9324,-4.9619,-4.9616,-4.9614,-4.9613,-4.9612,-4.9065,-4.9138,-4.9179,-4.9259,-4.9294,-4.9341,-4.941,-4.9423,-4.9494,-4.9572,-4.9557,-4.9654,-4.9697,-4.9787,-4.9817,-4.9892,-4.9851,-4.9891,-4.99,-4.991,-4.992,-4.9647,-4.9905,-4.9904,-4.9903,-4.9903,-4.9902,0,-4.9324,-4.9348,-4.9421,-4.9491,-4.9553,-4.9511,-4.9563,-4.9618,-4.9703,-4.9747,-4.981,-4.9908,-4.9986,-5.0006,-5.008,-5.0136,-5.0121,-5.0157,-5.0152,-5.0157,-4.9953,-4.9921,-5.0168,-5.0168,-5.0168,-5.0168,-5.0168,-5.0168,-4.9467,-4.9588,-4.9587,-4.9724,-4.9747,-4.9841,-4.9874,-4.9917,-4.9951,-5.0063,-5.0127,-5.0139,-5.0172,-5.0249,-5.0318,-5.0322,-5.0351,-5.0394,-5.039,-5.0199,-5.0172,-5.0146,-5.0117,-5.04,-5.0401,-5.0588,-5.059,-5.0591]},{"header":{"parameterUnit":"m.s-1","parameterCategory":1,"la1":30.2991,"la2":30.254,"lo1":-89.0895,"lo2":-89.0444,"dy":0.0017,"dx":0.0017,"nx":28,"ny":28,"refTime":"2025-01-08T09:00:00:Z","depth":0,"parameterNumber":3,"parameterNumberName":"V-component_of_WINDS"},"data":[0,0,0,0,0,0,0,0,0,0,0,0,0,0,0,0,0,0,0,0,0,0,0,0,0,0,0,0,0,0,0,0,0,0,0,0,0,0,0,0,0,0,0,0,0,0,0,0,0,0,0,0,0,0,0,0,0,0,0.8963,0.8963,0,0.8932,0.8932,0.8931,0.8885,0.8884,0.8883,0.8883,0.8849,0.8849,0.8849,0,0,0,0,0,0,0,0,0,0,0,0,0,0.8982,0.8982,0.8963,0.8963,0.8962,0.8932,0.8932,0.8931,0.8885,0.8884,0.8883,0.8882,0.8849,0.8849,0.8849,0,0,0,0,0,0,0,0,0,0,0,0,0,0.8965,0.8982,0.8963,0.8936,0.8933,0.8932,0.8932,0.8931,0.8885,0.8884,0.8883,0.8882,0.8849,0.8849,0.8849,0.8872,0,0,0.8848,0.8848,0,0,0,0,0,0,0,0,0.8966,0.8964,0.894,0.8938,0.8935,0.8911,0.8926,0.8911,0.8886,0.8903,0.8883,0.8881,0.8871,0.8869,0.8866,0.8871,0.8869,0.8848,0.8848,0.8848,0.8848,0,0,0,0,0,0,0,0.8967,0.8965,0.8951,0.894,0.8936,0.8925,0.8921,0.8923,0.8894,0.8902,0.8898,0.8895,0.8869,0.8866,0.8864,0.8869,0.8848,0.8848,0.8848,0.8848,0.8892,0.8894,0,0,0,0,0,0,0.8972,0.8966,0.8952,0.895,0.8948,0.8926,0.8921,0.892,0.8894,0.8889,0.8896,0.8893,0.8867,0.8865,0.8863,0.8889,0.8848,0.8848,0.8848,0.8891,0.8893,0.8894,0,0,0,0,0,0,0.8973,0.8972,0.8953,0.8957,0.8954,0.8927,0.8925,0.892,0.8917,0.889,0.8885,0.8899,0.8866,0.8863,0.8871,0.8887,0.8848,0.8848,0.889,0.8892,0.8893,0.8941,0,0,0,0,0,0,0.8974,0.8972,0.898,0.8958,0.8954,0.8961,0.8926,0.892,0.8917,0.8912,0.8891,0.8886,0.8865,0.8871,0.8871,0.8886,0.8848,0.8888,0.8891,0.8893,0.8938,0.8945,0.895,0,0,0,0,0,0.8975,0.8995,0.8981,0.898,0.8964,0.8962,0.896,0.8936,0.8918,0.8927,0.891,0.8887,0.8886,0.8872,0.8871,0.8887,0.8887,0.889,0.8893,0.8935,0.8944,0.895,0,0,0,0,0,0,0.9019,0.8991,0.8976,0.8989,0.8979,0.8954,0.8964,0.8945,0.8938,0.8935,0.8904,0.89,0.8911,0.89,0.8885,0.8909,0.8883,0.8886,0.8916,0.8923,0.8929,0.8932,0.8847,0,0,0,0,0,0.9031,0.9032,0.9007,0.9021,0.9017,0.8992,0.899,0.8972,0.896,0.8955,0.8939,0.8927,0.8925,0.8923,0.8919,0.8937,0.8932,0.8947,0.8953,0.8958,0.8961,0.8971,0.8978,0.8904,0.8904,0.8904,0,0,0.9054,0.9039,0.9041,0.903,0.902,0.9022,0.8988,0.8991,0.8993,0.8955,0.8961,0.8949,0.8935,0.8948,0.8952,0.8939,0.8981,0.8962,0.8967,0.8966,0.8975,0.8982,0.8988,0.8906,0.8905,0.8905,0,0,0.9098,0.9087,0.9098,0.9088,0.9074,0.9057,0.906,0.9039,0.903,0.9036,0.9008,0.9009,0.9005,0.8996,0.8991,0.9034,0.9013,0.9033,0.9065,0.9075,0.9081,0.9086,0.9102,0.9108,0.9036,0.9036,0.9036,0,0.9129,0.9131,0.9105,0.9111,0.9107,0.9075,0.9086,0.9078,0.9063,0.9061,0.9046,0.9041,0.9028,0.9039,0.905,0.9047,0.9049,0.9035,0.9082,0.9087,0.9091,0.9106,0.9112,0.9039,0.9039,0.9038,0.9038,0,0.917,0.9172,0.9183,0.917,0.9167,0.9176,0.9152,0.9152,0.9135,0.912,0.9127,0.9112,0.9105,0.9106,0.9089,0.9115,0.9107,0.9088,0.9061,0.9101,0.9115,0.912,0.9043,0.9042,0.9041,0.904,0,0,0.924,0.9214,0.9219,0.9213,0.9195,0.9196,0.9204,0.9197,0.9199,0.9189,0.9195,0.9193,0.9176,0.917,0.9152,0.916,0.9196,0.914,0.9139,0.9151,0.9225,0.9241,0.9247,0.9182,0.9183,0.9184,0.9227,0,0.9281,0.9292,0.927,0.9287,0.9289,0.9259,0.9265,0.9255,0.9242,0.9242,0.9227,0.9226,0.9202,0.9199,0.9206,0.9191,0.9211,0.9187,0.9188,0.9188,0.9192,0.9254,0.927,0.9311,0.9232,0.9233,0.9233,0,0.933,0.9324,0.9341,0.9324,0.9324,0.933,0.9323,0.9323,0.9312,0.9302,0.9296,0.9276,0.9282,0.9256,0.9265,0.9249,0.9249,0.9241,0.9242,0.9241,0.9213,0.9255,0.9323,0.9329,0.9241,0.9241,0.924,0,0.938,0.9377,0.9387,0.9383,0.9362,0.9368,0.9359,0.9347,0.9345,0.9339,0.9338,0.9332,0.933,0.9326,0.9305,0.9288,0.9317,0.9289,0.9309,0.9309,0.9316,0.9315,0.9384,0.9315,0.9315,0.9315,0.9314,0,0.9428,0.944,0.941,0.9416,0.9428,0.9403,0.9416,0.9405,0.9394,0.9398,0.9371,0.9375,0.9347,0.9348,0.9331,0.9342,0.934,0.9332,0.9328,0.9335,0.9336,0.9334,0.933,0.9316,0.9316,0.9316,0.9315,0,0.9486,0.9466,0.9476,0.9456,0.9451,0.9462,0.9445,0.945,0.9436,0.9441,0.9441,0.9418,0.9418,0.9397,0.9392,0.9381,0.9398,0.9388,0.9402,0.9399,0.942,0.9419,0.949,0.9499,0.9424,0.9425,0.9425,0,0.9518,0.9527,0.9509,0.9509,0.9503,0.9504,0.9503,0.9479,0.9478,0.9466,0.9473,0.9471,0.9468,0.947,0.9453,0.945,0.944,0.9465,0.9439,0.9447,0.9441,0.9441,0.9442,0.9471,0.9472,0.9472,0.9473,0,0.9577,0.9568,0.9566,0.9562,0.9561,0.9557,0.955,0.9553,0.9526,0.9527,0.9527,0.9525,0.9522,0.952,0.9514,0.9506,0.9485,0.9482,0.9486,0.9493,0.9501,0.9498,0.9418,0.948,0.9479,0.9479,0.9478,0.9478,0.9624,0.963,0.9619,0.9619,0.9612,0.9607,0.9611,0.9598,0.9598,0.9593,0.9579,0.9582,0.9571,0.9561,0.9555,0.9557,0.9544,0.955,0.9552,0.9554,0.9558,0.9501,0.9555,0.9555,0.9555,0.9555,0.9555,0,0.9682,0.9674,0.9674,0.9666,0.9667,0.9648,0.9641,0.9642,0.9645,0.9637,0.9635,0.9636,0.9635,0.9619,0.9616,0.9621,0.9612,0.9621,0.9621,0.9619,0.9569,0.9566,0.9629,0.9629,0.9629,0.9629,0.9629,0.9629,0.9712,0.9723,0.9712,0.9719,0.971,0.9713,0.9711,0.9707,0.97,0.9702,0.9702,0.9691,0.968,0.9677,0.9676,0.9671,0.9671,0.9684,0.9676,0.963,0.9623,0.9616,0.9612,0.9684,0.9684,0.9726,0.9726,0.9727]}]]